Skip Page Navigation
NASA JPL Caltech
NASA Logo - Jet Propulsion Laboratory + View the NASA Portal
+ Center for Near-Earth Object Studies
JPL Home Earth Solar System Stars & Galaxies Technology
JPL Solar System Dynamics
BODIES ORBITS EPHEMERIDES TOOLS PHYSICAL DATA DISCOVERY FAQ SITE MAP
IMPORTANT: The SSD Announcement email list is now available. Major changes are coming in the near future, including possible hostname and/or URL changes. To be notified of such changes, subscribe to this email list.

Please visit this page for more details.


JPL Small-Body Database Browser
Search: [ help ]  
392357 (2010 GR66)
Classification: Mars-crossing Asteroid          SPK-ID: 2392357
Ephemeris | Orbit Diagram | Orbital Elements | Mission Design | Physical Parameters | Discovery Circumstances ]

[ show orbit diagram ]
Orbital Elements at Epoch 2458600.5 (2019-Apr-27.0) TDB
Reference: JPL 13 (heliocentric ecliptic J2000)
 Element Value Uncertainty (1-sigma)   Units 
e .3733630192309486 1.3796e-07  
a 2.603831509526788 6.2305e-08 au
q 1.631657115561188 3.6091e-07 au
i 28.25030598312978 2.4599e-05 deg
node 39.2907368000518 3.3833e-05 deg
peri 92.30294977740532 9.5662e-05 deg
M 93.92695129887979 3.7153e-05 deg
tp 2458200.089488912242
(2018-Mar-22.58948891)
0.00016694 TDB
period 1534.679684565809
4.20
5.5083e-05
1.508e-07
d
yr
n .2345766374706726 8.4195e-09 deg/d
Q 3.576005903492388 8.5567e-08 au
  Orbit Determination Parameters
   # obs. used (total)      97  
   data-arc span      6427 days (17.60 yr)  
   first obs. used      2000-11-01  
   last obs. used      2018-06-07  
   planetary ephem.      DE431  
   SB-pert. ephem.      SB431-N16  
   condition code      0  
   norm. resid. RMS      .66813  
   source      ORB  
   producer      Otto Matic  
   solution date      2019-Jul-14 13:26:06  

Additional Information
 Earth MOID = .878996 au 
 Jupiter MOID = 2.24982 au 
 T_jup = 3.155 
[ show covariance matrix ]

Ephemeris | Orbit Diagram | Orbital Elements | Mission Design | Physical Parameters | Discovery Circumstances ]

Physical Parameter Table
Parameter Symbol Value Units Sigma Reference Notes
absolute magnitude H 17.0   n/a MPO450378  

392357 (2010 GR66)          Discovered 2010-Apr-09 by CSS at Catalina
Reference: Last Updated: 2014-04-17

Alternate Designations
 2010 GR66 = 2000 VH60 
Ephemeris | Orbit Diagram | Orbital Elements | Mission Design | Physical Parameters | Discovery Circumstances ]
ABOUT SSD CREDITS/AWARDS PRIVACY/COPYRIGHT GLOSSARY LINKS
FirstGov
(server date/time)  
NASA Home Page
Site Manager:   Ryan S. Park
Webmaster  Alan B. Chamberlin